Atlantic City, NJ

11:54 PM EDT on May 22, 2017 (GMT -0400)
Atlantic City International

Weather History for KACY - November, 2013

Change the Weather History Date:

Wednesday, November 27, 2013

  Actual Average Record
Temperature  
Mean Temperature 47 °F 43 °F  
Max Temperature 62 °F 52 °F 69 °F (1981)
Min Temperature 32 °F 34 °F 16 °F (1991)
Degree Days  
Heating Degree Days 18 22  
Month to date heating degree days 538 480  
Since 1 July heating degree days 903 838  
Cooling Degree Days 0 0  
Month to date cooling degree days 0 0  
Year to date cooling degree days 1088 1054  
Moisture  
Dew Point 47 °F    
Average Humidity 80    
Maximum Humidity 100    
Minimum Humidity 59    
Precipitation  
Precipitation 1.14 in 0.11 in 3.48 in (1944)
Month to date precipitation 2.55 2.92  
Year to date precipitation 40.06 37.71  
Snow  
Snow 0.00 in 0.00 in 6.00 in (1898)
Month to date snowfall T 0.1  
Since 1 July snowfall T 0.1  
Since 1 September snowfall T 0.1  
Snow Depth 0.00 in    
Sea Level Pressure  
Sea Level Pressure 29.50 in    
Wind  
Wind Speed 18 mph (West)    
Max Wind Speed 32 mph    
Max Gust Speed 47 mph    
Visibility 7 miles    
Events Rain    
T = Trace of Precipitation, MM = Missing Value Source: NWS Daily Summary

Daily Weather History Graph

Daily Weather History Graph

Search for Another Location

Airport or City:

Trip Planner

Search our weather history database for the weather conditions in past years. The results will help you decide how hot, cold, wet, or windy it might be!

Date:

Astronomy

Nov. 27, 2013 Rise Set
Actual Time 6:55 AM EST 4:36 PM EST
Civil Twilight 6:26 AM EST 5:05 PM EST
Nautical Twilight 5:52 AM EST 5:38 PM EST
Astronomical Twilight 5:20 AM EST 6:11 PM EST
Moon 12:56 AM EST (11/27) 1:10 PM EST (11/27)
Length of Visible Light 10h 39m
Length of Day
9h 40m
Waning Crescent, 32% of the Moon is Illuminated
Nov 27
Waning Crescent
Dec 2
New
Dec 9
First Quarter
Dec 17
Full
Dec 25
Last Quarter

Hourly Weather History & Observations

Time (EST) Temp. Windchill Dew Point Humidity Pressure Visibility Wind Dir Wind Speed Gust Speed Precip Events Conditions
12:54 AM 59.0 °F - 57.9 °F 96% 29.60 in 5.0 mi SSE 23.0 mph 33.4 mph 0.04 in Rain Rain
1:27 AM 59.0 °F - 59.0 °F 100% 29.56 in 2.5 mi SSE 19.6 mph 35.7 mph 0.05 in Rain Rain
1:54 AM 59.0 °F - 59.0 °F 100% 29.55 in 1.8 mi SSE 19.6 mph 33.4 mph 0.18 in Rain Heavy Rain
2:01 AM 60.1 °F - 59.0 °F 96% 29.54 in 2.0 mi SSE 18.4 mph 33.4 mph 0.04 in Rain Heavy Rain
2:17 AM 60.1 °F - 60.1 °F 100% 29.53 in 4.0 mi South 21.9 mph 32.2 mph 0.08 in Rain Light Rain
2:26 AM 60.1 °F - 59.0 °F 96% 29.53 in 1.8 mi South 23.0 mph 34.5 mph 0.12 in Rain Heavy Rain
2:38 AM 60.1 °F - 59.0 °F 96% 29.52 in 2.5 mi South 20.7 mph 36.8 mph 0.19 in Rain Heavy Rain
2:51 AM 60.8 °F - 59.0 °F 94% 29.50 in 4.0 mi South 24.2 mph 38.0 mph 0.23 in Rain Light Rain
2:54 AM 60.1 °F - 59.0 °F 96% 29.49 in 4.0 mi South 20.7 mph 38.0 mph 0.23 in Rain Light Rain
3:12 AM 61.0 °F - 60.1 °F 97% 29.47 in 2.0 mi South 21.9 mph 39.1 mph 0.06 in Rain Heavy Rain
3:31 AM 61.0 °F - 60.1 °F 97% 29.46 in 6.0 mi SSE 25.3 mph 39.1 mph 0.12 in Rain Light Rain
3:54 AM 61.0 °F - 60.1 °F 97% 29.45 in 5.0 mi South 29.9 mph 47.2 mph 0.13 in Rain Light Rain
4:35 AM 62.1 °F - 61.0 °F 96% 29.42 in 2.0 mi South 23.0 mph 36.8 mph 0.02 in Rain Rain
4:54 AM 62.1 °F - 61.0 °F 96% 29.42 in 10.0 mi South 18.4 mph 39.1 mph 0.04 in   Overcast
5:40 AM 61.0 °F - 60.1 °F 97% 29.44 in 5.0 mi SW 18.4 mph 27.6 mph 0.01 in Rain Light Rain
5:54 AM 60.1 °F - 59.0 °F 96% 29.43 in 6.0 mi WSW 11.5 mph - 0.01 in   Overcast
6:01 AM 59.0 °F - 57.9 °F 96% 29.43 in 8.0 mi WSW 8.1 mph - N/A   Overcast
6:31 AM 57.9 °F - 57.0 °F 97% 29.43 in 8.0 mi WSW 5.8 mph - 0.00 in Rain Light Rain
6:42 AM 57.9 °F - 57.0 °F 97% 29.43 in 7.0 mi WSW 8.1 mph - 0.00 in Rain Light Rain
6:54 AM 57.0 °F - 55.9 °F 96% 29.44 in 6.0 mi West 13.8 mph 20.7 mph 0.00 in Rain Light Rain
7:54 AM 51.1 °F - 50.0 °F 96% 29.44 in 10.0 mi WNW 13.8 mph - 0.01 in Rain Light Rain
8:11 AM 50.0 °F - 48.0 °F 93% 29.47 in 1.8 mi WNW 16.1 mph - 0.04 in Rain Heavy Rain
8:21 AM 48.9 °F - 48.0 °F 97% 29.46 in 1.0 mi WNW 15.0 mph - 0.11 in Rain Heavy Rain
8:29 AM 48.0 °F - 46.9 °F 96% 29.47 in 1.2 mi WNW 16.1 mph - 0.17 in Rain Heavy Rain
8:33 AM 48.0 °F - 46.9 °F 96% 29.47 in 2.0 mi WNW 11.5 mph - 0.18 in Rain Rain
8:42 AM 48.0 °F - 46.9 °F 96% 29.46 in 6.0 mi WNW 10.4 mph - 0.19 in Rain Light Rain
8:54 AM 48.0 °F - 46.9 °F 96% 29.46 in 9.0 mi NW 15.0 mph - 0.20 in Rain Light Rain
9:46 AM 46.9 °F - 46.0 °F 97% 29.45 in 7.0 mi WNW 11.5 mph - 0.07 in Rain Light Rain
9:54 AM 46.9 °F - 45.0 °F 93% 29.43 in 8.0 mi WNW 15.0 mph - 0.07 in Rain Light Rain
10:54 AM 45.0 °F 37.6 °F 43.0 °F 93% 29.44 in 10.0 mi WNW 17.3 mph - 0.01 in   Overcast
11:03 AM 45.0 °F 38.2 °F 43.0 °F 93% 29.46 in 10.0 mi WNW 15.0 mph - 0.00 in Rain Light Rain
11:33 AM 44.1 °F 37.7 °F 43.0 °F 96% 29.43 in 10.0 mi WNW 12.7 mph - 0.03 in Rain Light Rain
11:54 AM 44.1 °F 37.1 °F 43.0 °F 96% 29.42 in 10.0 mi NW 15.0 mph - 0.03 in Rain Light Rain
12:05 PM 44.1 °F 36.5 °F 42.1 °F 93% 29.41 in 10.0 mi NW 17.3 mph - 0.00 in Rain Light Rain
12:16 PM 43.0 °F 35.4 °F 41.0 °F 93% 29.40 in 10.0 mi NW 16.1 mph 24.2 mph 0.00 in   Overcast
12:54 PM 43.0 °F 36.0 °F 39.9 °F 89% 29.41 in 6.0 mi NW 13.8 mph - 0.01 in Rain Rain
1:54 PM 42.1 °F 34.5 °F 39.9 °F 92% 29.39 in 5.0 mi NW 15.0 mph - 0.07 in Rain Rain
2:32 PM 39.9 °F 29.7 °F 37.9 °F 93% 29.44 in 10.0 mi NW 23.0 mph 28.8 mph 0.02 in Rain Light Rain
2:54 PM 39.9 °F 30.2 °F 37.9 °F 93% 29.42 in 4.0 mi NW 20.7 mph 28.8 mph 0.06 in Rain Rain
3:07 PM 39.0 °F 29.0 °F 37.0 °F 93% 29.40 in 9.0 mi NW 20.7 mph 31.1 mph 0.01 in Rain Light Rain
3:54 PM 39.0 °F 29.3 °F 36.0 °F 89% 29.42 in 10.0 mi NW 19.6 mph 27.6 mph 0.03 in Rain Light Rain
4:05 PM 39.0 °F 29.6 °F 36.0 °F 89% 29.45 in 10.0 mi WNW 18.4 mph 27.6 mph 0.00 in   Overcast
4:54 PM 37.9 °F 27.9 °F 36.0 °F 93% 29.49 in 3.0 mi WNW 19.6 mph 31.1 mph 0.02 in Rain Light Rain
5:05 PM 37.9 °F 26.8 °F 36.0 °F 93% 29.53 in 7.0 mi WNW 24.2 mph 31.1 mph 0.00 in Rain Light Rain
5:54 PM 37.0 °F 25.9 °F 34.0 °F 89% 29.57 in 10.0 mi WNW 23.0 mph 32.2 mph 0.00 in   Overcast
6:16 PM 36.0 °F 25.0 °F 34.0 °F 93% 29.58 in 10.0 mi WNW 20.7 mph 31.1 mph N/A   Overcast
6:54 PM 36.0 °F 26.3 °F 33.1 °F 89% 29.61 in 10.0 mi WNW 16.1 mph 24.2 mph N/A   Mostly Cloudy
7:54 PM 36.0 °F 26.0 °F 32.0 °F 86% 29.66 in 10.0 mi WNW 17.3 mph 26.5 mph N/A   Mostly Cloudy
8:54 PM 37.0 °F 26.2 °F 30.0 °F 76% 29.70 in 10.0 mi WNW 21.9 mph 28.8 mph N/A   Overcast
9:54 PM 36.0 °F 25.0 °F 25.0 °F 64% 29.75 in 10.0 mi WNW 20.7 mph 28.8 mph N/A   Overcast
10:54 PM 35.1 °F 23.5 °F 23.0 °F 61% 29.80 in 10.0 mi West 21.9 mph 31.1 mph N/A   Partly Cloudy
11:54 PM 32.0 °F 20.1 °F 19.0 °F 59% 29.86 in 10.0 mi West 19.6 mph 35.7 mph N/A   Clear